Time,TemperatureF,DewpointF,PressureIn,WindDirection,WindDirectionDegrees,WindSpeedMPH,WindSpeedGustMPH,Humidity,HourlyPrecipIn,Conditions,Clouds,dailyrainin,SoftwareType,DateUTC
2013-10-26 00:14:00,77.0,69.0,30.09,NNE,22,17.0,22.0,76,0.00,,,0.00,,2013-10-26 04:14:00,
2013-10-26 00:24:00,77.0,69.0,30.09,NNE,30,17.0,22.0,76,0.00,,,0.00,,2013-10-26 04:24:00,
2013-10-26 00:44:00,77.0,69.0,30.09,NE,35,19.0,24.0,76,0.00,,,0.00,,2013-10-26 04:44:00,
2013-10-26 00:54:00,77.0,70.0,30.09,NE,43,16.0,21.0,78,0.00,,,0.00,,2013-10-26 04:54:00,
2013-10-26 01:13:00,77.0,70.0,30.09,NNE,31,16.0,20.0,79,0.00,,,0.00,,2013-10-26 05:13:00,
2013-10-26 01:23:00,76.0,69.0,30.08,NNE,25,15.0,19.0,80,0.00,,,0.00,,2013-10-26 05:23:00,
2013-10-26 01:52:00,76.0,69.0,30.07,NNE,26,14.0,22.0,80,0.00,,,0.00,,2013-10-26 05:52:00,
2013-10-26 02:12:00,76.0,69.0,30.07,NNE,29,16.0,20.0,80,0.00,,,0.00,,2013-10-26 06:12:00,
2013-10-26 02:22:00,76.0,69.0,30.06,NE,43,16.0,21.0,80,0.00,,,0.00,,2013-10-26 06:22:00,
2013-10-26 02:52:00,76.0,70.0,30.05,NNE,27,14.0,20.0,81,0.00,,,0.00,,2013-10-26 06:52:00,
2013-10-26 03:12:00,76.0,70.0,30.04,NE,56,14.0,19.0,81,0.00,,,0.00,,2013-10-26 07:12:00,
2013-10-26 03:22:00,76.0,70.0,30.04,NNE,29,17.0,22.0,81,0.00,,,0.00,,2013-10-26 07:22:00,
2013-10-26 03:42:00,76.0,70.0,30.04,NNE,33,15.0,19.0,81,0.00,,,0.00,,2013-10-26 07:42:00,
2013-10-26 03:52:00,76.0,70.0,30.04,NE,46,16.0,23.0,82,0.00,,,0.00,,2013-10-26 07:52:00,
2013-10-26 04:22:00,76.0,70.0,30.03,NE,35,16.0,22.0,81,0.00,,,0.00,,2013-10-26 08:22:00,
2013-10-26 04:42:00,76.0,70.0,30.03,NNE,29,17.0,22.0,81,0.00,,,0.00,,2013-10-26 08:42:00,
2013-10-26 04:52:00,76.0,70.0,30.03,NE,42,15.0,20.0,81,0.00,,,0.00,,2013-10-26 08:52:00,
2013-10-26 05:22:00,76.0,70.0,30.03,NNE,22,14.0,22.0,81,0.00,,,0.00,,2013-10-26 09:22:00,
2013-10-26 05:43:00,75.0,69.0,30.03,NNE,28,11.0,19.0,81,0.00,,,0.00,,2013-10-26 09:43:00,
2013-10-26 05:53:00,75.0,69.0,30.04,NE,49,12.0,20.0,82,0.00,,,0.00,,2013-10-26 09:53:00,
2013-10-26 06:23:00,75.0,69.0,30.04,NNE,21,13.0,18.0,82,0.00,,,0.00,,2013-10-26 10:23:00,
2013-10-26 06:53:00,75.0,69.0,30.05,NE,39,13.0,20.0,83,0.00,,,0.00,,2013-10-26 10:53:00,
2013-10-26 07:12:00,75.0,69.0,30.05,NNE,25,14.0,19.0,83,0.00,,,0.00,,2013-10-26 11:12:00,
2013-10-26 07:22:00,75.0,69.0,30.06,NE,36,12.0,17.0,83,0.00,,,0.00,,2013-10-26 11:22:00,
2013-10-26 07:42:00,75.0,69.0,30.06,NE,48,13.0,19.0,83,0.00,,,0.00,,2013-10-26 11:42:00,
2013-10-26 07:52:00,75.0,69.0,30.07,NE,36,15.0,19.0,83,0.00,,,0.00,,2013-10-26 11:52:00,
2013-10-26 08:12:00,75.0,69.0,30.08,NNE,32,15.0,19.0,82,0.00,,,0.00,,2013-10-26 12:12:00,
2013-10-26 08:22:00,75.0,69.0,30.08,NNE,32,12.0,18.0,83,0.00,,,0.00,,2013-10-26 12:22:00,
2013-10-26 08:42:00,75.0,69.0,30.08,NE,35,14.0,18.0,83,0.00,,,0.00,,2013-10-26 12:42:00,
2013-10-26 08:52:00,76.0,70.0,30.08,NE,55,16.0,21.0,82,0.00,,,0.00,,2013-10-26 12:52:00,
2013-10-26 09:11:00,76.0,70.0,30.09,NE,35,13.0,20.0,81,0.00,,,0.00,,2013-10-26 13:11:00,
2013-10-26 09:21:00,76.0,70.0,30.09,NNE,33,15.0,18.0,81,0.00,,,0.00,,2013-10-26 13:21:00,
2013-10-26 09:42:00,77.0,70.0,30.09,NNE,27,16.0,21.0,79,0.00,,,0.00,,2013-10-26 13:42:00,
2013-10-26 09:52:00,77.0,70.0,30.09,NE,54,14.0,20.0,79,0.00,,,0.00,,2013-10-26 13:52:00,
2013-10-26 10:11:00,77.0,70.0,30.09,NE,41,14.0,21.0,78,0.00,,,0.00,,2013-10-26 14:11:00,
2013-10-26 10:22:00,77.0,70.0,30.09,NE,40,12.0,17.0,78,0.00,,,0.00,,2013-10-26 14:22:00,
2013-10-26 10:42:00,77.0,70.0,30.09,NE,40,12.0,17.0,78,0.00,,,0.00,,2013-10-26 14:42:00,
2013-10-26 10:52:00,79.0,70.0,30.10,NE,52,17.0,22.0,74,0.00,,,0.00,,2013-10-26 14:52:00,
2013-10-26 11:12:00,79.0,70.0,30.10,NE,42,14.0,21.0,74,0.00,,,0.00,,2013-10-26 15:12:00,
2013-10-26 11:23:00,80.0,70.0,30.10,NE,35,14.0,21.0,72,0.00,,,0.00,,2013-10-26 15:23:00,
2013-10-26 11:55:00,81.0,71.0,30.10,NE,42,12.0,20.0,71,0.00,,,0.00,,2013-10-26 15:55:00,
2013-10-26 12:24:00,81.0,71.0,30.10,ENE,57,15.0,23.0,71,0.00,,,0.00,,2013-10-26 16:24:00,
2013-10-26 12:44:00,81.0,70.0,30.10,NNE,19,18.0,22.0,70,0.00,,,0.00,,2013-10-26 16:44:00,
2013-10-26 12:54:00,81.0,70.0,30.09,NNE,29,17.0,25.0,70,0.00,,,0.00,,2013-10-26 16:54:00,
2013-10-26 13:13:00,82.0,71.0,30.09,NE,36,16.0,24.0,70,0.00,,,0.00,,2013-10-26 17:13:00,
2013-10-26 13:23:00,82.0,71.0,30.08,NNE,17,15.0,24.0,69,0.00,,,0.00,,2013-10-26 17:23:00,
2013-10-26 13:43:00,82.0,70.0,30.07,ENE,75,13.0,22.0,68,0.00,,,0.00,,2013-10-26 17:43:00,
2013-10-26 13:52:00,82.0,70.0,30.06,NNE,33,11.0,19.0,68,0.00,,,0.00,,2013-10-26 17:52:00,
2013-10-26 14:12:00,82.0,70.0,30.06,NE,44,12.0,21.0,67,0.00,,,0.00,,2013-10-26 18:12:00,
2013-10-26 14:22:00,82.0,69.0,30.05,NNE,27,17.0,23.0,65,0.00,,,0.00,,2013-10-26 18:22:00,
2013-10-26 14:42:00,82.0,70.0,30.04,NNE,25,13.0,20.0,67,0.00,,,0.00,,2013-10-26 18:42:00,
2013-10-26 14:52:00,83.0,70.0,30.04,ENE,65,14.0,22.0,64,0.00,,,0.00,,2013-10-26 18:52:00,
2013-10-26 15:12:00,83.0,70.0,30.03,ENE,58,12.0,22.0,64,0.00,,,0.00,,2013-10-26 19:12:00,
2013-10-26 15:22:00,83.0,70.0,30.03,NE,45,11.0,20.0,65,0.00,,,0.00,,2013-10-26 19:22:00,
2013-10-26 15:42:00,83.0,70.0,30.03,NE,38,14.0,21.0,65,0.00,,,0.00,,2013-10-26 19:42:00,
2013-10-26 15:52:00,82.0,69.0,30.03,NE,44,11.0,21.0,66,0.00,,,0.00,,2013-10-26 19:52:00,
2013-10-26 16:22:00,83.0,70.0,30.03,NE,49,11.0,21.0,65,0.00,,,0.00,,2013-10-26 20:22:00,
2013-10-26 16:43:00,83.0,70.0,30.02,North,8,12.0,19.0,65,0.00,,,0.00,,2013-10-26 20:43:00,
2013-10-26 16:52:00,83.0,70.0,30.03,East,87,10.0,19.0,65,0.00,,,0.00,,2013-10-26 20:52:00,
2013-10-26 17:22:00,82.0,69.0,30.02,East,93,9.0,18.0,64,0.00,,,0.00,,2013-10-26 21:22:00,
2013-10-26 17:55:00,82.0,70.0,30.02,ENE,61,10.0,17.0,67,0.00,,,0.00,,2013-10-26 21:55:00,
2013-10-26 18:14:00,82.0,71.0,30.02,ENE,66,8.0,18.0,69,0.00,,,0.00,,2013-10-26 22:14:00,
2013-10-26 18:24:00,81.0,70.0,30.03,ENE,65,11.0,17.0,69,0.00,,,0.00,,2013-10-26 22:24:00,
2013-10-26 18:54:00,80.0,71.0,30.03,ENE,72,8.0,16.0,73,0.00,,,0.00,,2013-10-26 22:54:00,
2013-10-26 19:22:00,79.0,70.0,30.03,ESE,102,9.0,15.0,75,0.00,,,0.00,,2013-10-26 23:22:00,
2013-10-26 19:42:00,78.0,69.0,30.03,ENE,60,9.0,16.0,75,0.00,,,0.00,,2013-10-26 23:42:00,
2013-10-26 19:52:00,78.0,70.0,30.04,East,79,6.0,16.0,76,0.00,,,0.00,,2013-10-26 23:52:00,
2013-10-26 20:22:00,78.0,70.0,30.04,East,92,9.0,15.0,77,0.00,,,0.00,,2013-10-27 00:22:00,
2013-10-26 20:42:00,78.0,70.0,30.04,East,92,7.0,15.0,77,0.00,,,0.00,,2013-10-27 00:42:00,
2013-10-26 20:52:00,78.0,70.0,30.05,NE,40,7.0,15.0,77,0.00,,,0.00,,2013-10-27 00:52:00,
2013-10-26 21:11:00,77.0,69.0,30.05,ENE,67,9.0,15.0,77,0.00,,,0.00,,2013-10-27 01:11:00,
2013-10-26 21:22:00,78.0,70.0,30.05,ENE,65,8.0,13.0,77,0.00,,,0.00,,2013-10-27 01:22:00,
2013-10-26 21:52:00,77.0,69.0,30.05,NNE,23,7.0,15.0,76,0.00,,,0.00,,2013-10-27 01:52:00,
2013-10-26 22:12:00,77.0,69.0,30.05,NE,53,7.0,14.0,76,0.00,,,0.00,,2013-10-27 02:12:00,
2013-10-26 22:22:00,77.0,69.0,30.05,NE,44,8.0,15.0,76,0.00,,,0.00,,2013-10-27 02:22:00,
2013-10-26 22:42:00,77.0,69.0,30.05,NE,40,9.0,16.0,76,0.00,,,0.00,,2013-10-27 02:42:00,
2013-10-26 22:52:00,77.0,69.0,30.05,East,97,10.0,16.0,77,0.00,,,0.00,,2013-10-27 02:52:00,
2013-10-26 23:12:00,77.0,69.0,30.05,SE,127,7.0,14.0,76,0.00,,,0.00,,2013-10-27 03:12:00,
2013-10-26 23:22:00,77.0,69.0,30.05,ENE,66,7.0,14.0,77,0.00,,,0.00,,2013-10-27 03:22:00,
2013-10-26 23:55:00,77.0,69.0,30.04,East,92,7.0,12.0,77,0.00,,,0.00,,2013-10-27 03:55:00,